RH
100 98 98 87 80 72 76 75 75 72 72 72 56 68 44 29 45 33 27 24 24 22 16 17 18 20 37 48 46 47 67 73 68 64 55 48 41 49 58 51 50 52 55 57
99 98 98 100 99 95 97 97 88 74 73 82 71 61 43 28 32 34 34 31 27 26 24 25 30 32 26 22 18 26 37 64 78 76 74 66 54 48 58 58 56 60 58 60
97 98 97 98 99 100 97 93 85 84 74 74 72 59 37 28 31 29 16 12 12 12 13 13 14 21 29 33 32 25 23 29 55 76 78 77 77 63 58 59 48 46 52 61
98 93 100 100 96 94 84 75 79 80 78 79 67 72 29 19 13 11 12 15 18 15 15 14 14 12 11 14 23 32 35 36 30 35 44 52 74 76 62 60 57 61 55 61
97 94 97 100 99 92 85 80 80 82 76 77 58 61 26 15 13 16 14 15 16 14 13 14 14 14 15 17 17 17 23 36 48 47 49 43 50 76 80 76 77 84 80 70
87 92 95 90 93 93 78 85 88 84 76 79 59 61 18 20 22 16 13 20 24 25 23 21 24 24 25 26 25 25 26 27 29 44 51 57 58 58 70 72 75 82 84 80
97 99 96 94 88 92 90 92 71 75 90 78 62 65 20 24 29 24 18 23 29 32 32 32 33 33 30 31 32 31 32 34 35 36 35 50 64 65 58 61 66 81 84 86
94 98 93 95 89 80 88 84 58 64 89 84 70 68 30 24 27 26 30 35 38 36 36 37 38 40 40 40 40 39 39 41 42 42 41 40 40 63 69 67 66 64 77 93
85 82 87 81 76 85 85 93 75 76 93 93 54 36 21 25 26 37 40 41 42 43 43 43 40 39 38 38 39 40 41 41 39 39 39 36 36 35 40 53 59 64 63 72
79 85 94 90 89 88 79 72 79 71 66 82 58 46 22 36 43 46 49 51 48 46 45 45 47 47 43 43 42 45 45 46 46 45 44 42 36 29 34 31 43 56 62 67
79 76 96 97 96 95 90 92 79 71 71 86 89 42 35 42 48 57 76 78 83 88 86 69 54 54 52 54 56 61 60 64 60 54 50 44 36 24 30 28 24 47 59 72
84 81 99 96 93 93 98 78 76 63 74 100 97 57 46 49 58 74 78 78 82 87 93 82 72 64 75 70 62 78 94 81 66 57 48 39 32 32 39 46 39 46 58 73
82 79 87 97 96 92 91 98 93 80 82 90 83 54 51 54 76 76 78 80 84 91 84 79 66 66 80 91 92 98 97 76 67 49 39 39 37 52 53 49 41 52 62 69
83 78 71 73 76 74 86 72 79 95 96 84 70 53 59 82 93 86 78 96 81 83 84 80 66 74 82 98 95 91 88 81 62 49 42 37 36 58 62 51 50 61 76 78
91 87 84 81 84 85 81 68 69 75 74 84 52 63 79 94 96 98 99 96 94 82 89 89 71 88 95 95 86 90 91 79 64 51 44 42 74 76 67 70 77 84 85 92
93 89 81 69 64 69 72 77 81 75 75 78 70 81 96 98 100 99 99 100 100 92 99 95 88 97 85 78 82 84 74 51 43 42 36 61 86 83 88 92 97 91 84 93
98 92 83 73 82 78 70 54 44 49 66 88 95 89 99 96 100 94 99 100 99 98 98 95 80 95 82 91 83 78 72 55 40 49 70 85 95 87 84 97 97 92 90 57
88 91 88 80 77 95 89 83 83 82 82 87 84 90 95 94 99 100 97 98 98 98 97 67 62 74 86 88 98 100 96 100 99 83 99 94 100 98 99 93 99 100 98 99
92 94 88 88 89 67 79 86 83 84 85 85 90 87 79 85 95 95 98 98 98 99 99 73 83 97 100 100 99 99 97 100 99 99 98 98 98 99 100 99 92 91 100 97
90 91 94 100 100 88 94 87 87 87 86 85 87 75 79 99 97 96 99 92 97 98 100 99 99 99 100 100 100 100 99 94 78 96 98 99 99 98 99 96 100 100 96 99
97 99 97 100 99 65 85 80 87 88 91 84 87 74 84 91 92 88 85 80 88 100 97 99 100 100 100 100 100 100 100 100 100 95 97 93 99 100 99 99 100 98 97 98
80 93 99 100 99 79 83 86 91 97 98 85 82 73 79 93 96 86 90 84 79 82 85 97 98 99 99 100 100 99 96 100 98 98 98 98 98 99 99 99 98 98 97 83
94 84 93 83 72 94 98 85 89 92 91 88 76 77 75 93 88 96 100 88 88 76 85 90 93 94 99 100 99 99 96 94 97 98 98 99 100 100 100 86 51 29 26 23
99 100 97 93 85 78 84 90 94 94 93 90 75 78 74 85 99 100 100 99 94 89 82 90 96 95 92 93 95 98 97 99 100 100 98 88 65 38 27 25 22 23 25 23
96 100 99 98 77 89 94 88 95 97 93 87 76 74 74 79 96 100 100 99 97 97 87 93 99 100 91 93 98 98 95 91 75 48 31 28 27 23 24 25 25 23 20 16
95 96 97 88 85 86 75 82 79 76 77 73 70 70 80 83 93 97 94 91 99 99 94 90 95 99 97 82 77 53 40 33 29 28 26 24 25 26 25 23 20 17 14 11
Wind_Speed
29 26 33 29 22 21 15 14 13 14 17 24 30 31 29 27 33 33 31 29 30 33 31 38 42 47 54 56 54 53 48 45 45 45 44 41 38 34 33 33 30 28 28 28
27 27 18 22 27 24 16 13 12 11 17 21 28 34 32 30 33 30 28 27 28 28 30 31 34 37 43 47 52 58 57 52 49 48 47 47 45 42 37 36 34 32 33 32
27 17 19 19 19 24 12 11 11 16 20 23 28 35 28 23 26 27 23 22 23 29 30 30 34 36 37 39 40 45 53 57 59 54 48 48 49 50 47 43 39 36 36 35
16 18 12 12 14 14 12 11 14 17 18 9 12 10 28 22 18 21 17 15 13 15 17 19 21 25 35 42 42 44 43 44 49 55 60 60 58 53 49 43 40 37 37 36
11 14 17 15 17 14 13 14 14 14 13 17 18 9 11 13 11 9 4 2 7 9 11 11 14 20 27 30 33 43 45 45 43 43 48 50 56 57 53 45 42 41 40 38
13 15 15 13 16 17 18 16 12 14 14 4 4 8 8 3 11 2 4 9 11 13 16 19 20 21 20 19 19 20 26 37 45 47 47 49 48 54 56 50 46 43 41 39
13 16 17 14 14 14 15 12 2 3 2 5 2 4 8 6 4 8 13 14 15 17 18 16 14 16 19 18 19 20 21 21 21 28 34 53 54 54 51 51 50 47 43 40
14 7 13 12 17 13 15 13 4 4 1 4 5 7 1 11 6 12 16 17 17 21 20 21 20 18 18 21 25 26 29 31 32 33 32 32 38 55 53 55 48 51 46 42
13 5 11 6 11 15 12 11 11 0 1 2 5 7 10 14 10 7 12 14 15 16 19 22 25 27 27 29 29 29 30 32 32 33 34 37 40 39 42 49 49 47 50 47
10 7 6 14 12 15 9 10 6 6 2 3 4 9 9 3 5 13 17 23 27 30 34 34 36 36 34 33 34 31 33 34 36 38 38 37 34 38 41 38 42 47 41 44
15 5 12 13 12 18 15 13 8 6 3 3 3 6 3 4 10 18 32 30 32 35 38 41 47 49 45 41 34 34 34 33 36 38 39 34 30 30 36 38 34 41 39 41
13 6 9 12 9 10 20 15 13 4 4 3 1 9 2 1 20 34 29 30 34 36 37 34 32 33 33 38 44 35 27 31 35 35 32 28 30 32 32 36 34 37 40 40
11 5 6 4 10 13 16 23 20 16 7 7 3 6 2 23 32 22 26 31 33 31 32 33 26 23 20 23 27 23 22 30 34 30 29 31 30 31 29 32 35 37 40 37
9 7 4 5 1 4 13 19 20 22 8 8 24 31 24 28 26 23 24 32 32 31 33 32 21 18 16 21 23 18 23 28 25 31 29 29 28 28 26 27 31 34 33 34
15 5 10 12 9 8 8 10 14 24 28 17 26 31 24 22 24 27 33 34 30 26 28 27 15 12 14 9 15 19 25 29 27 30 28 22 21 23 23 24 28 29 32 33
15 6 4 7 9 14 18 18 18 18 21 29 27 26 18 23 26 24 27 30 28 25 24 19 10 6 4 8 14 21 25 21 14 20 22 20 19 18 19 22 23 25 34 35
15 7 3 2 3 7 12 12 19 16 15 16 20 16 20 23 20 20 27 28 24 24 18 13 8 11 10 12 15 17 17 9 9 12 14 16 16 14 15 20 21 21 22 25
7 9 7 3 4 2 4 6 4 8 12 15 15 14 19 18 19 21 26 24 21 18 16 6 5 5 7 12 11 12 5 6 3 10 8 11 13 12 11 14 18 16 20 28
8 7 3 2 5 11 9 8 3 8 5 8 13 16 14 14 16 18 23 21 19 18 14 7 3 5 7 8 11 10 11 6 10 11 11 8 7 4 14 7 15 17 17 17
10 10 7 2 3 3 6 6 5 7 5 16 18 16 11 10 12 16 17 19 17 11 13 7 4 3 5 6 6 4 5 8 7 11 9 1 6 5 2 12 16 2 10 12
9 9 14 11 5 7 10 4 6 2 5 15 17 15 7 9 9 16 18 18 19 15 15 9 7 5 7 8 5 6 4 3 3 3 1 2 3 7 12 11 11 10 8 6
10 7 7 10 7 7 10 3 5 7 8 13 17 14 7 6 11 12 13 17 18 19 17 10 6 6 4 4 5 4 9 14 13 14 18 18 17 17 14 12 9 7 3 2
8 10 3 10 2 5 8 9 13 9 12 13 17 14 9 6 7 11 13 13 15 17 19 22 16 9 12 11 15 16 18 20 18 17 17 16 14 11 7 5 4 3 3 3
10 12 15 12 6 14 18 14 12 11 13 14 17 14 10 7 7 8 10 11 10 11 13 15 16 15 16 18 18 17 16 17 14 12 12 10 10 7 4 4 5 5 5 7
12 12 12 19 20 17 16 13 13 14 15 17 18 14 11 6 8 8 8 10 5 5 8 9 13 11 9 12 13 11 10 11 11 10 9 8 7 5 6 6 6 8 10 11
10 13 15 24 24 25 20 19 20 21 20 20 18 14 10 6 7 8 8 9 7 3 0 5 7 8 5 8 8 9 10 8 8 6 6 6 5 5 5 6 7 9 12 14
Wind_Direction
193 189 206 202 205 219 232 229 238 250 250 253 248 259 256 252 251 257 260 261 257 256 252 246 245 244 240 241 245 249 247 247 252 256 259 259 256 254 251 253 252 251 248 249
197 212 213 191 198 210 212 223 240 246 256 267 265 265 259 260 265 268 270 263 258 251 243 242 244 244 244 247 248 244 244 244 243 248 253 258 260 257 254 251 251 251 250 253
193 206 230 200 214 208 219 233 247 263 264 276 283 285 277 266 270 270 272 266 265 257 256 255 250 245 244 245 246 247 246 244 242 243 245 250 255 256 252 250 250 251 252 251
198 215 194 210 193 195 220 234 253 272 280 291 291 295 281 288 279 269 265 263 275 278 261 258 258 250 246 244 242 242 244 245 245 245 245 246 249 254 257 254 254 250 252 256
193 184 199 199 200 206 214 235 255 272 287 294 286 262 295 297 282 269 290 196 257 268 262 249 256 261 258 258 255 248 246 244 243 244 246 248 243 245 252 253 253 253 254 257
188 190 206 215 220 224 236 248 258 277 285 281 285 218 294 91 123 42 291 298 284 268 260 260 276 279 273 270 268 261 256 257 255 251 250 251 250 248 248 251 251 249 252 253
155 179 195 206 200 215 226 228 293 344 34 225 278 245 249 164 231 268 296 298 284 283 281 275 279 294 281 272 270 271 267 263 259 254 257 254 253 253 251 251 251 249 252 253
165 165 194 213 213 212 206 215 199 207 210 290 250 234 262 196 236 299 296 300 290 287 277 275 278 276 278 281 282 282 283 282 280 277 272 268 259 253 253 253 250 251 249 247
175 158 193 178 216 203 203 212 217 209 265 322 256 267 248 248 269 291 292 281 272 268 268 273 272 266 262 262 260 267 271 273 272 274 271 272 267 262 259 256 254 247 252 249
172 130 161 199 199 206 212 209 185 200 124 272 292 275 246 199 312 313 304 296 284 279 276 274 274 269 258 257 257 259 264 272 276 278 281 280 278 263 259 262 252 246 246 247
164 168 172 181 205 204 195 191 196 174 187 166 322 276 218 249 313 325 321 317 314 307 297 284 272 267 262 253 254 261 263 271 275 279 277 278 274 261 255 254 259 247 240 241
174 163 160 192 216 214 224 223 214 197 185 185 206 277 236 304 333 323 317 317 315 308 305 305 295 284 280 263 258 249 255 270 277 278 272 266 258 257 252 255 251 241 235 237
200 184 136 193 232 223 216 222 230 233 254 233 177 252 228 323 318 319 323 323 318 316 311 313 301 299 284 254 237 240 263 268 271 266 266 260 257 257 253 250 243 232 234 235
208 223 213 189 139 199 214 226 229 227 218 230 246 285 321 326 331 327 325 331 328 320 319 321 314 327 308 248 233 250 267 275 273 258 265 262 258 255 250 240 230 228 230 237
213 255 242 249 257 263 251 229 229 226 230 246 282 294 322 333 331 325 326 316 323 322 315 317 309 318 310 245 243 273 284 288 287 258 264 260 255 251 242 227 222 224 230 233
212 234 282 297 267 255 254 246 245 249 250 260 287 299 336 332 324 328 322 327 328 328 317 312 294 290 259 256 287 293 294 293 273 266 260 244 251 243 236 232 228 232 239 236
211 237 293 306 208 297 278 270 241 256 261 273 274 322 328 326 323 334 337 336 332 328 319 300 268 264 292 297 299 299 298 287 277 266 264 228 229 221 224 223 247 231 228 229
220 253 255 276 282 263 168 138 152 277 291 280 296 325 331 328 328 338 336 340 340 330 329 307 228 259 298 310 320 312 296 329 260 213 245 233 237 227 205 229 226 211 217 232
207 221 242 260 263 285 218 196 239 298 32 20 338 334 333 329 333 337 336 348 340 344 336 343 278 295 318 323 305 294 255 310 280 329 326 238 234 172 223 210 215 232 248 258
220 234 232 239 253 247 176 173 300 301 181 351 349 341 328 334 346 341 341 349 351 335 353 334 324 294 282 306 328 295 241 258 261 302 294 317 200 254 254 229 245 278 250 213
202 231 234 237 263 278 182 223 316 348 313 343 344 342 318 355 4 14 8 10 19 32 25 25 28 46 35 11 18 29 23 306 265 253 235 233 166 152 141 149 143 151 150 151
210 199 216 215 227 257 168 214 329 305 310 340 344 340 310 325 350 353 1 10 19 30 35 32 26 24 4 41 75 69 83 96 88 99 110 116 118 113 115 122 129 141 150 59
235 227 241 218 249 164 170 275 288 293 289 321 338 338 315 292 320 329 344 358 13 23 45 55 63 56 82 115 109 104 100 96 104 107 107 103 97 97 102 101 90 56 20 341
230 258 253 256 253 238 249 274 265 275 283 302 328 335 324 270 280 303 328 333 0 18 39 62 74 83 94 99 101 104 106 108 108 105 101 100 97 97 97 78 53 27 352 335
229 242 259 264 255 270 262 275 284 281 279 292 311 314 319 281 269 283 306 306 322 0 36 70 85 91 94 108 111 117 113 106 103 99 92 82 77 72 60 42 18 360 346 337
247 253 259 260 262 259 259 265 278 277 281 288 296 295 306 264 270 280 280 304 258 266 57 72 84 103 80 96 103 102 108 112 104 98 93 86 73 53 33 11 354 346 341 336